Weather History for PAAK - December, 2012

Change the Weather History Date:

Friday, December 7, 2012

  Actual Average (PADK) Record (PADK)
Temperature  
Mean Temperature 30 °F -  
Max Temperature 33 °F 37 °F 55 °F (1950)
Min Temperature 28 °F 28 °F 18 °F (1975)
Degree Days  
Heating Degree Days 34    
Moisture  
Dew Point -17 °F    
Average Humidity 12    
Maximum Humidity 14    
Minimum Humidity 11    
Precipitation  
Precipitation 0.00 in - - ()
Sea Level Pressure  
Sea Level Pressure 29.39 in    
Wind  
Wind Speed 17 mph (NE)    
Max Wind Speed 33 mph    
Max Gust Speed 54 mph    
Visibility 6 miles    
Events      
Averages and records for this station are not official NWS values.
T = Trace of Precipitation, MM = Missing Value Source: NWS Daily Summary

Daily Weather History Graph

Daily Weather History Graph

Search for Another Location

Airport or City:

Trip Planner

Search our weather history database for the weather conditions in past years. The results will help you decide how hot, cold, wet, or windy it might be!

Date:

Astronomy

Dec. 07, 2012 Rise Set
Actual Time 9:32 AM HST 5:24 PM HST
Civil Twilight 8:51 AM HST 6:05 PM HST
Nautical Twilight 8:08 AM HST 6:48 PM HST
Astronomical Twilight 7:26 AM HST 7:30 PM HST
Moon 2:25 AM HST (12/7) 2:06 PM HST (12/7)
Length of Visible Light 9h 13m
Length of Day
7h 52m
Last Quarter, 36% of the Moon is Illuminated
Dec 7
Last Quarter
Dec 12
New
Dec 19
First Quarter
Dec 28
Full
Jan 4
Last Quarter

Hourly Weather History & Observations

Time (HST) Temp. Windchill Dew Point Humidity Pressure Visibility Wind Dir Wind Speed Gust Speed Precip Events Conditions
12:16 AM 32.0 °F 20.5 °F -16.6 °F 12% 29.76 in 9.0 mi NNE 18.4 mph 24.2 mph N/A   Mostly Cloudy
12:36 AM 30.2 °F 20.2 °F -16.6 °F 13% 29.76 in 10.0 mi NNE 12.7 mph 17.3 mph N/A   Overcast
12:56 AM 32.0 °F 20.1 °F -16.6 °F 12% 29.75 in 10.0 mi NE 19.6 mph 24.2 mph N/A   Overcast
1:16 AM 30.2 °F 21.3 °F -16.6 °F 13% 29.75 in 10.0 mi NE 10.4 mph 21.9 mph N/A   Overcast
1:36 AM 30.2 °F 20.8 °F -16.6 °F 13% 29.74 in 10.0 mi NE 11.5 mph 23.0 mph N/A   Overcast
1:56 AM 30.2 °F 25.4 °F -16.6 °F 13% 29.73 in 10.0 mi NW 4.6 mph - N/A   Overcast
2:16 AM 30.2 °F 18.9 °F -16.6 °F 13% 29.72 in 7.0 mi NE 16.1 mph 23.0 mph N/A   Overcast
2:36 AM 30.2 °F 18.5 °F -16.6 °F 13% 29.72 in 5.0 mi NE 17.3 mph 24.2 mph N/A   Overcast
2:56 AM 30.2 °F 16.2 °F -16.6 °F 13% 29.69 in 10.0 mi NE 25.3 mph 34.5 mph N/A   Mostly Cloudy
3:16 AM 30.2 °F 21.9 °F -16.6 °F 13% 29.71 in 5.0 mi NE 9.2 mph 23.0 mph N/A   Overcast
3:36 AM 30.2 °F 17.1 °F -16.6 °F 13% 29.70 in 6.0 mi ENE 21.9 mph 31.1 mph N/A   Overcast
3:56 AM 30.2 °F 22.6 °F -16.6 °F 13% 29.70 in 10.0 mi NE 8.1 mph 26.5 mph N/A   Overcast
4:16 AM 30.2 °F 19.3 °F -16.6 °F 13% 29.68 in 10.0 mi NE 15.0 mph 26.5 mph N/A   Overcast
4:36 AM 30.2 °F 20.8 °F -16.6 °F 13% 29.68 in 6.0 mi NE 11.5 mph 23.0 mph N/A   Overcast
4:56 AM 30.2 °F 16.5 °F -16.6 °F 13% 29.67 in 10.0 mi NE 24.2 mph 34.5 mph N/A   Overcast
5:16 AM 30.2 °F 18.5 °F -16.6 °F 13% 29.66 in 10.0 mi NE 17.3 mph 28.8 mph N/A   Overcast
5:36 AM 30.2 °F 16.5 °F -16.6 °F 13% 29.65 in 10.0 mi NE 24.2 mph 31.1 mph N/A   Overcast
5:56 AM 30.2 °F 19.8 °F -16.6 °F 13% 29.64 in 8.0 mi NE 13.8 mph 31.1 mph N/A   Overcast
6:16 AM 30.2 °F 17.8 °F -16.6 °F 13% 29.64 in 8.0 mi ENE 19.6 mph 28.8 mph N/A   Overcast
6:36 AM 30.2 °F 18.1 °F -18.4 °F 11% 29.63 in 9.0 mi NE 18.4 mph 24.2 mph N/A   Overcast
6:56 AM 28.4 °F 16.6 °F -18.4 °F 12% 29.61 in 10.0 mi East 16.1 mph 26.5 mph N/A   Overcast
7:16 AM 30.2 °F 17.8 °F -18.4 °F 11% 29.62 in 6.0 mi NE 19.6 mph 28.8 mph N/A   Overcast
7:36 AM 30.2 °F 15.7 °F -18.4 °F 11% 29.59 in 10.0 mi NE 27.6 mph 34.5 mph N/A   Overcast
7:56 AM 28.4 °F 17.0 °F -18.4 °F 12% 29.60 in 10.0 mi East 15.0 mph 26.5 mph N/A   Overcast
8:16 AM 30.2 °F 20.8 °F -18.4 °F 11% 29.59 in 10.0 mi ENE 11.5 mph 26.5 mph N/A   Overcast
8:36 AM 30.2 °F 16.8 °F -18.4 °F 11% 29.58 in 9.0 mi NE 23.0 mph 34.5 mph N/A   Overcast
8:56 AM 30.2 °F 16.5 °F -18.4 °F 11% 29.56 in 10.0 mi ENE 24.2 mph 33.4 mph N/A   Overcast
9:16 AM 30.2 °F 18.5 °F -16.6 °F 13% 29.57 in 6.0 mi NE 17.3 mph 36.8 mph N/A   Overcast
9:36 AM 30.2 °F 15.9 °F -18.4 °F 11% 29.53 in 7.0 mi NE 26.5 mph 38.0 mph N/A   Overcast
9:56 AM 30.2 °F 16.8 °F -18.4 °F 11% 29.54 in 7.0 mi ENE 23.0 mph 31.1 mph N/A   Overcast
10:16 AM 30.2 °F 20.2 °F -18.4 °F 11% 29.55 in 8.0 mi NNE 12.7 mph 27.6 mph N/A   Overcast
10:36 AM 30.2 °F 16.8 °F -18.4 °F 11% 29.50 in 6.0 mi ENE 23.0 mph 32.2 mph N/A   Overcast
10:56 AM 30.2 °F 15.7 °F -16.6 °F 13% 29.48 in 5.0 mi East 27.6 mph 36.8 mph N/A   Overcast
11:16 AM 30.2 °F 19.3 °F -16.6 °F 13% 29.47 in 7.0 mi NE 15.0 mph 40.3 mph N/A   Overcast
11:36 AM 30.2 °F 14.7 °F -16.6 °F 13% 29.43 in 6.0 mi ENE 32.2 mph 40.3 mph N/A   Overcast
11:56 AM 30.2 °F 17.4 °F -16.6 °F 13% 29.45 in 6.0 mi East 20.7 mph 27.6 mph N/A   Mostly Cloudy
12:16 PM 30.2 °F 17.1 °F -16.6 °F 13% 29.44 in 6.0 mi ENE 21.9 mph 36.8 mph N/A   Overcast
12:36 PM 30.2 °F 16.8 °F -16.6 °F 13% 29.41 in 4.0 mi ENE 23.0 mph 36.8 mph N/A   Overcast
12:56 PM 30.2 °F 14.9 °F -16.6 °F 13% 29.37 in 7.0 mi ENE 31.1 mph 40.3 mph N/A   Mostly Cloudy
1:16 PM 30.2 °F 17.4 °F -16.6 °F 13% 29.40 in 8.0 mi ENE 20.7 mph 39.1 mph N/A   Overcast
1:36 PM 30.2 °F 15.9 °F -16.6 °F 13% 29.37 in 5.0 mi ENE 26.5 mph 44.9 mph N/A   Overcast
1:56 PM 30.2 °F 14.5 °F -16.6 °F 13% 29.33 in 8.0 mi ENE 33.4 mph 42.6 mph N/A   Overcast
2:16 PM 30.2 °F 15.7 °F -16.6 °F 13% 29.35 in 4.0 mi East 27.6 mph 47.2 mph N/A   Overcast
2:36 PM 30.2 °F 16.2 °F -16.6 °F 13% 29.35 in 5.0 mi ENE 25.3 mph 54.1 mph N/A   Overcast
2:56 PM 30.2 °F 16.2 °F -16.6 °F 13% 29.32 in 5.0 mi ENE 25.3 mph 41.4 mph N/A   Mostly Cloudy
3:16 PM 30.2 °F 17.4 °F -16.6 °F 13% 29.30 in 5.0 mi East 20.7 mph 32.2 mph N/A   Overcast
3:36 PM 30.2 °F 18.1 °F -16.6 °F 13% 29.28 in 8.0 mi ENE 18.4 mph 33.4 mph N/A   Overcast
3:56 PM 30.2 °F 24.3 °F -16.6 °F 13% 29.25 in 6.0 mi East 5.8 mph 36.8 mph N/A   Overcast
4:16 PM 30.2 °F 18.9 °F -16.6 °F 13% 29.25 in 2.0 mi NE 16.1 mph 31.1 mph N/A   Overcast
4:36 PM 30.2 °F 26.7 °F -16.6 °F 13% 29.25 in 2.5 mi North 3.5 mph 29.9 mph N/A   Overcast
4:56 PM 30.2 °F 22.6 °F -18.4 °F 11% 29.25 in 1.5 mi North 8.1 mph 16.1 mph N/A   Overcast
5:16 PM 28.4 °F 15.8 °F -18.4 °F 12% 29.22 in 1.8 mi North 18.4 mph 25.3 mph N/A   Overcast
5:36 PM 28.4 °F 14.4 °F -18.4 °F 12% 29.19 in 1.0 mi North 23.0 mph 27.6 mph N/A   Overcast
5:56 PM 28.4 °F 13.8 °F -18.4 °F 12% 29.18 in 1.5 mi North 25.3 mph 33.4 mph N/A   Overcast
6:16 PM 28.4 °F 17.0 °F -18.4 °F 12% 29.18 in 1.8 mi North 15.0 mph 21.9 mph N/A   Overcast
6:36 PM 28.4 °F 15.1 °F -18.4 °F 12% 29.14 in 1.0 mi North 20.7 mph 29.9 mph N/A   Overcast
6:56 PM 28.4 °F 16.6 °F -18.4 °F 12% 29.11 in 1.5 mi NNW 16.1 mph 19.6 mph N/A   Overcast
7:16 PM 30.2 °F 18.9 °F -18.4 °F 11% 29.10 in 1.0 mi NNW 16.1 mph 33.4 mph N/A   Overcast
7:36 PM 30.2 °F 19.8 °F -16.6 °F 13% 29.08 in 1.5 mi NNW 13.8 mph 26.5 mph N/A   Overcast
7:56 PM 30.2 °F 18.1 °F -16.6 °F 13% 29.06 in 1.5 mi NNW 18.4 mph 35.7 mph N/A   Overcast
8:16 PM 30.2 °F 20.2 °F -16.6 °F 13% 29.05 in 1.2 mi NNW 12.7 mph 27.6 mph N/A   Overcast
8:36 PM 30.2 °F 21.9 °F -16.6 °F 13% 29.03 in 2.0 mi NW 9.2 mph 20.7 mph N/A   Overcast
8:56 PM 30.2 °F 20.8 °F -16.6 °F 13% 29.01 in 3.0 mi NW 11.5 mph 25.3 mph N/A   Overcast
9:16 PM 32.0 °F - -16.6 °F 12% 29.00 in 3.0 mi Calm Calm - N/A   Overcast
9:36 PM 32.0 °F 22.5 °F -16.6 °F 12% 28.98 in 1.2 mi East 12.7 mph 33.4 mph N/A   Overcast
9:56 PM 32.0 °F 20.8 °F -16.6 °F 12% 28.95 in 1.5 mi NNW 17.3 mph 31.1 mph N/A   Overcast
10:16 PM 32.0 °F 20.5 °F -16.6 °F 12% 28.97 in 1.5 mi NNW 18.4 mph 28.8 mph N/A   Overcast
10:36 PM 32.0 °F 25.6 °F -16.6 °F 12% 28.95 in 1.5 mi NNW 6.9 mph 25.3 mph N/A   Overcast
10:56 PM 32.0 °F 24.2 °F -16.6 °F 12% 28.93 in 1.8 mi NW 9.2 mph - N/A   Overcast
11:16 PM 32.0 °F 21.6 °F -13.0 °F 14% 28.92 in 1.5 mi NW 15.0 mph 34.5 mph N/A   Overcast
11:36 PM 33.8 °F 23.5 °F -14.8 °F 12% 28.90 in 1.8 mi NNE 16.1 mph 29.9 mph N/A   Overcast
11:56 PM 33.8 °F 25.3 °F -14.8 °F 12% 28.89 in 2.5 mi NW 11.5 mph 26.5 mph N/A   Overcast